Hourly Weather Roundup
Issued by NWS

Home | Current Version | Previous Version | Text Only | Print | Product List | Glossary On
Versions: 1 2 3 4 5 6 7 8 9 10 11 12 13 14 15 16 17 18 19 20 21 22 23 24 25 26 27 28 29 30 31 32 33 34 35 36 37 38 39 40 41 42 43 44 45 46 47 48 49 50
000
NZUS43 KILX 200110
HWRCRS

NWR Hourly Weather Roundup
National Weather Service Lincoln IL
800 PM CDT TUE SEP 19 2017


CITY           SKY/WX    TMP DP  RH WIND       PRES   REMARKS
Champaign      CLEAR     71  64  78 E5        29.91R
Lawrenceville  CLEAR     74  70  87 SE5       29.91R
Peoria         CLEAR     74  66  76 E5        29.88R
Springfield    CLEAR     76  66  71 E6        29.87R
$$


CITY           SKY/WX    TMP DP  RH WIND       PRES   REMARKS
Bloomington    CLEAR     74  64  71 S5        29.91R
Danville       CLEAR     66  64  93 CALM      29.89S
Decatur        CLEAR     71  67  87 E5        29.89R
Effingham      CLEAR     73  67  83 CALM      29.91R
Flora          PTCLDY    75  69  81 SE5       29.89S
Galesburg      CLEAR     71  64  80 E6        29.87R
Jacksonville   CLEAR     74  65  71 SE6       29.85S
Lacon          CLEAR     67  65  94 E3        29.88R
La Salle       CLEAR     71  63  77 SE3       29.89R
Lincoln        CLEAR     74  66  76 E3        29.88S
Litchfield     CLEAR     74  67  80 E5        29.88R

CITY           SKY/WX    TMP DP  RH WIND       PRES   REMARKS
Macomb         CLEAR     71  66  86 SE5       29.87R
Mattoon        CLEAR     74  66  76 NE3       29.89R
Moline         CLEAR     70  63  78 E8        29.84S
Olney          CLEAR     76  70  80 SE5       29.90S
Paris          CLEAR     72  65  78 E3        29.92R
Pontiac        CLEAR     67  67  98 CALM      29.91R
Quincy         CLEAR     74  67  78 SE6       29.83S
Rantoul        CLEAR     73  67  81 E3        29.91R
Robinson       MOCLDY    71  68  89 S3        29.91R
Taylorville    CLEAR     72  67  86 SE3       29.88S
Terre Haute    PTCLDY    71  66  84 CALM      29.91R
$$


CITY           SKY/WX    TMP DP  RH WIND       PRES   REMARKS
Burlington     CLEAR     75  67  76 SE7       29.83R
Chicago        PTCLDY    69  63  81 NE7       29.92R
Des Moines     PTCLDY    79  68  69 SE15      29.70F HX  81
Evansville     CLEAR     74  68  81 CALM      29.92R
Indianapolis   PTCLDY    74  66  76 CALM      29.92R
Kansas City    PTCLDY    81  70  69 S15       29.71R HX  84
Milwaukee      CLOUDY    66  64  93 E6        29.93S
St Louis       CLEAR     82  67  60 SE8       29.86R HX  84
$$





USA.gov is the U.S. government's official web portal to all federal, state and local government web resources and services.